KZ-1A R/B (45025 NORAD) Tracking and Keplerian Element Data

This shows tracking and keplerian element data for the satellite.

Feedback or suggestion? Click here.




ElementValue
Catalog45025
NameKZ-1A R/B
Epoch Orbit31
Epoch Day18.15591219
Epoch Year2020
RAAN83.932
Inclination86.3605
Eccentricity0.0245014
Argument of Perigee26.1269
Mean Anonmoly342.6462
Mean Motion15.9836666
Decay Rate0.23348673
L11 45025U 20004B 20018.15591219 .23348673 13238-5 49882-3 0 9998
L22 45025 86.3605 83.9320 0245014 26.1269 342.6462 15.98366660 314

Live tracking and technical data element details for KZ-1A R/B (NORAD 45025). KZ-1A R/B can be tracked NOW for your location showing map with azimuth and elevation plus other details from your city location.

Track the satellite on the map from your city or location and see movement details for azimuth, elevation, latitude, longitude, range, height, and movement on the map or in text.







IsCatalogInMostPopularTable: catalog: 45025, numindb: 33
Update: records affected: 1



GetName: 45025 KZ-1A R/B

Hit Count: updated at: Fri, 03 Jul 2020 17:27:08 GMT